Time,TemperatureF,DewpointF,PressureIn,WindDirection,WindDirectionDegrees,WindSpeedMPH,WindSpeedGustMPH,Humidity,HourlyPrecipIn,Conditions,Clouds,dailyrainin,SoftwareType,DateUTC
2013-07-04 00:22:00,71.0,71.0,30.29,SSW,196,1.0,13.0,99,0.00,,,0.00,,2013-07-04 04:22:00,
2013-07-04 00:33:00,71.0,71.0,30.29,SSW,196,1.0,13.0,99,0.00,,,0.00,,2013-07-04 04:33:00,
2013-07-04 00:43:00,71.0,71.0,30.28,South,186,0.0,12.0,99,0.00,,,0.00,,2013-07-04 04:43:00,
2013-07-04 00:52:00,71.0,71.0,30.28,South,186,0.0,12.0,99,0.00,,,0.00,,2013-07-04 04:52:00,
2013-07-04 01:02:00,71.0,71.0,30.28,South,186,0.0,12.0,99,0.00,,,0.00,,2013-07-04 05:02:00,
2013-07-04 01:22:00,71.0,71.0,30.28,South,182,1.0,12.0,99,0.00,,,0.00,,2013-07-04 05:22:00,
2013-07-04 01:33:00,71.0,71.0,30.28,South,182,1.0,12.0,99,0.00,,,0.00,,2013-07-04 05:33:00,
2013-07-04 01:43:00,70.0,70.0,30.28,South,182,0.0,12.0,99,0.00,,,0.00,,2013-07-04 05:43:00,
2013-07-04 01:52:00,70.0,70.0,30.28,South,182,0.0,12.0,99,0.00,,,0.00,,2013-07-04 05:52:00,
2013-07-04 02:01:00,70.0,70.0,30.28,South,182,0.0,12.0,99,0.00,,,0.00,,2013-07-04 06:01:00,
2013-07-04 02:11:00,69.0,69.0,30.27,South,182,0.0,12.0,99,0.00,,,0.00,,2013-07-04 06:11:00,
2013-07-04 02:22:00,69.0,69.0,30.27,South,182,0.0,12.0,99,0.00,,,0.00,,2013-07-04 06:22:00,
2013-07-04 02:34:00,69.0,69.0,30.27,South,182,0.0,12.0,99,0.00,,,0.00,,2013-07-04 06:34:00,
2013-07-04 02:43:00,68.0,68.0,30.27,South,182,0.0,12.0,99,0.00,,,0.00,,2013-07-04 06:43:00,
2013-07-04 02:53:00,68.0,68.0,30.27,South,182,0.0,12.0,99,0.00,,,0.00,,2013-07-04 06:53:00,
2013-07-04 03:02:00,68.0,68.0,30.27,South,182,0.0,12.0,99,0.00,,,0.00,,2013-07-04 07:02:00,
2013-07-04 03:12:00,69.0,69.0,30.27,SW,230,0.0,12.0,99,0.00,,,0.00,,2013-07-04 07:12:00,
2013-07-04 03:22:00,69.0,69.0,30.27,SW,230,0.0,12.0,99,0.00,,,0.00,,2013-07-04 07:22:00,
2013-07-04 03:34:00,69.0,69.0,30.27,SW,230,0.0,12.0,99,0.00,,,0.00,,2013-07-04 07:34:00,
2013-07-04 03:52:00,69.0,69.0,30.27,SW,230,0.0,12.0,99,0.00,,,0.00,,2013-07-04 07:52:00,
2013-07-04 04:02:00,69.0,69.0,30.27,SW,230,0.0,12.0,99,0.00,,,0.00,,2013-07-04 08:02:00,
2013-07-04 04:22:00,69.0,69.0,30.27,WNW,291,0.0,12.0,99,0.00,,,0.00,,2013-07-04 08:22:00,
2013-07-04 04:33:00,69.0,69.0,30.27,WNW,291,0.0,12.0,99,0.00,,,0.00,,2013-07-04 08:33:00,
2013-07-04 04:42:00,70.0,70.0,30.27,WNW,291,0.0,12.0,99,0.00,,,0.00,,2013-07-04 08:42:00,
2013-07-04 04:53:00,70.0,70.0,30.27,WNW,291,0.0,12.0,99,0.00,,,0.00,,2013-07-04 08:53:00,
2013-07-04 05:02:00,70.0,70.0,30.27,WNW,291,0.0,12.0,99,0.00,,,0.00,,2013-07-04 09:02:00,
2013-07-04 05:11:00,70.0,70.0,30.27,WNW,291,0.0,12.0,99,0.00,,,0.00,,2013-07-04 09:11:00,
2013-07-04 05:22:00,70.0,70.0,30.28,WNW,291,0.0,12.0,99,0.00,,,0.00,,2013-07-04 09:22:00,
2013-07-04 05:33:00,70.0,70.0,30.28,WNW,291,0.0,12.0,99,0.00,,,0.00,,2013-07-04 09:33:00,
2013-07-04 05:52:00,70.0,70.0,30.29,WNW,291,0.0,12.0,99,0.00,,,0.00,,2013-07-04 09:52:00,
2013-07-04 06:01:00,70.0,70.0,30.29,WNW,291,0.0,12.0,99,0.00,,,0.00,,2013-07-04 10:01:00,
2013-07-04 06:11:00,70.0,70.0,30.29,WNW,291,0.0,12.0,99,0.00,,,0.00,,2013-07-04 10:11:00,
2013-07-04 06:22:00,70.0,70.0,30.29,WNW,291,0.0,12.0,99,0.00,,,0.00,,2013-07-04 10:22:00,
2013-07-04 06:34:00,70.0,70.0,30.29,WNW,291,0.0,12.0,99,0.00,,,0.00,,2013-07-04 10:34:00,
2013-07-04 06:53:00,71.0,71.0,30.29,SSW,195,0.0,12.0,99,0.00,,,0.00,,2013-07-04 10:53:00,
2013-07-04 07:02:00,71.0,71.0,30.29,SSW,195,0.0,12.0,99,0.00,,,0.00,,2013-07-04 11:02:00,
2013-07-04 07:12:00,71.0,71.0,30.29,NW,308,0.0,12.0,99,0.00,,,0.00,,2013-07-04 11:12:00,
2013-07-04 07:22:00,71.0,71.0,30.29,NW,308,0.0,12.0,99,0.00,,,0.00,,2013-07-04 11:22:00,
2013-07-04 07:34:00,71.0,71.0,30.29,NW,308,0.0,12.0,99,0.00,,,0.00,,2013-07-04 11:34:00,
2013-07-04 07:43:00,72.0,72.0,30.31,NW,305,0.0,12.0,99,0.00,,,0.00,,2013-07-04 11:43:00,
2013-07-04 07:53:00,72.0,72.0,30.31,NW,305,0.0,12.0,99,0.00,,,0.00,,2013-07-04 11:53:00,
2013-07-04 08:02:00,72.0,72.0,30.31,NW,305,0.0,12.0,99,0.00,,,0.00,,2013-07-04 12:02:00,
2013-07-04 08:22:00,72.0,72.0,30.31,NW,305,0.0,12.0,99,0.00,,,0.00,,2013-07-04 12:22:00,
2013-07-04 08:33:00,72.0,72.0,30.31,NW,305,0.0,12.0,99,0.00,,,0.00,,2013-07-04 12:33:00,
2013-07-04 08:43:00,74.0,74.0,30.31,NW,305,0.0,12.0,99,0.00,,,0.00,,2013-07-04 12:43:00,
2013-07-04 08:52:00,74.0,74.0,30.31,NW,305,0.0,12.0,99,0.00,,,0.00,,2013-07-04 12:52:00,
2013-07-04 09:23:00,73.0,73.0,30.31,NW,305,0.0,12.0,99,0.00,,,0.00,,2013-07-04 13:23:00,
2013-07-04 09:33:00,73.0,73.0,30.31,NW,305,0.0,12.0,99,0.00,,,0.00,,2013-07-04 13:33:00,
2013-07-04 09:43:00,74.0,74.0,30.30,SSE,161,0.0,12.0,99,0.00,,,0.00,,2013-07-04 13:43:00,
2013-07-04 10:02:00,74.0,74.0,30.30,SSE,161,0.0,12.0,99,0.00,,,0.00,,2013-07-04 14:02:00,
2013-07-04 10:12:00,74.0,74.0,30.30,SSE,161,0.0,12.0,99,0.00,,,0.00,,2013-07-04 14:12:00,
2013-07-04 10:22:00,76.0,76.0,30.30,South,182,1.0,12.0,99,0.00,,,0.00,,2013-07-04 14:22:00,
2013-07-04 10:33:00,76.0,76.0,30.30,South,182,1.0,12.0,99,0.00,,,0.00,,2013-07-04 14:33:00,
2013-07-04 10:43:00,76.0,76.0,30.30,South,182,1.0,12.0,99,0.00,,,0.00,,2013-07-04 14:43:00,
2013-07-04 10:53:00,77.0,77.0,30.29,NW,322,0.0,12.0,99,0.00,,,0.00,,2013-07-04 14:53:00,
2013-07-04 11:02:00,77.0,77.0,30.29,NW,322,0.0,12.0,99,0.00,,,0.00,,2013-07-04 15:02:00,
2013-07-04 11:11:00,77.0,77.0,30.29,NW,322,0.0,12.0,99,0.00,,,0.00,,2013-07-04 15:11:00,
2013-07-04 11:23:00,77.0,76.0,30.29,SSW,200,0.0,12.0,98,0.00,,,0.00,,2013-07-04 15:23:00,
2013-07-04 11:33:00,77.0,76.0,30.29,SSW,200,0.0,12.0,98,0.00,,,0.00,,2013-07-04 15:33:00,
2013-07-04 11:43:00,77.0,76.0,30.29,SSW,200,0.0,12.0,98,0.00,,,0.00,,2013-07-04 15:43:00,
2013-07-04 11:53:00,78.0,77.0,30.29,North,358,2.0,12.0,96,0.00,,,0.00,,2013-07-04 15:53:00,
2013-07-04 12:02:00,78.0,77.0,30.29,North,358,2.0,12.0,96,0.00,,,0.00,,2013-07-04 16:02:00,
2013-07-04 12:11:00,78.0,77.0,30.29,North,358,2.0,12.0,96,0.00,,,0.00,,2013-07-04 16:11:00,
2013-07-04 12:22:00,78.0,77.0,30.28,NE,44,1.0,12.0,96,0.00,,,0.00,,2013-07-04 16:22:00,
2013-07-04 12:33:00,78.0,77.0,30.28,NE,44,1.0,12.0,96,0.00,,,0.00,,2013-07-04 16:33:00,
2013-07-04 12:43:00,78.0,77.0,30.28,NE,44,1.0,12.0,96,0.00,,,0.00,,2013-07-04 16:43:00,
2013-07-04 12:52:00,78.0,76.0,30.27,SSW,212,2.0,12.0,94,0.00,,,0.00,,2013-07-04 16:52:00,
2013-07-04 13:02:00,78.0,76.0,30.27,SSW,212,2.0,12.0,94,0.00,,,0.00,,2013-07-04 17:02:00,
2013-07-04 13:12:00,78.0,76.0,30.27,SSW,212,2.0,12.0,94,0.00,,,0.00,,2013-07-04 17:12:00,
2013-07-04 15:53:00,78.0,75.0,30.24,South,171,1.0,15.0,92,0.00,,,0.00,,2013-07-04 19:53:00,
2013-07-04 16:02:00,78.0,75.0,30.24,South,171,1.0,15.0,92,0.00,,,0.00,,2013-07-04 20:02:00,
2013-07-04 16:11:00,78.0,75.0,30.24,South,171,1.0,15.0,92,0.00,,,0.00,,2013-07-04 20:11:00,
2013-07-04 16:53:00,80.0,78.0,30.23,SSE,152,1.0,15.0,93,0.00,,,0.00,,2013-07-04 20:53:00,
2013-07-04 17:01:00,80.0,78.0,30.23,SSE,152,1.0,15.0,93,0.00,,,0.00,,2013-07-04 21:01:00,
2013-07-04 17:12:00,80.0,78.0,30.23,SSE,152,1.0,15.0,93,0.00,,,0.00,,2013-07-04 21:12:00,
2013-07-04 17:22:00,80.0,78.0,30.23,NNW,335,0.0,15.0,95,0.00,,,0.00,,2013-07-04 21:22:00,
2013-07-04 17:32:00,80.0,78.0,30.23,NNW,335,0.0,15.0,95,0.00,,,0.00,,2013-07-04 21:32:00,
2013-07-04 17:43:00,80.0,78.0,30.23,NNW,335,0.0,15.0,95,0.00,,,0.00,,2013-07-04 21:43:00,
2013-07-04 18:33:00,73.0,72.0,30.22,South,172,2.0,15.0,97,0.00,,,0.00,,2013-07-04 22:33:00,
2013-07-04 18:43:00,73.0,72.0,30.22,South,172,2.0,15.0,97,0.00,,,0.00,,2013-07-04 22:43:00,
2013-07-04 19:12:00,71.0,71.0,30.23,South,185,1.0,15.0,99,0.00,,,0.00,,2013-07-04 23:12:00,
2013-07-04 21:52:00,71.0,71.0,30.25,NNW,338,0.0,15.0,99,0.00,,,0.00,,2013-07-05 01:52:00,
2013-07-04 22:02:00,71.0,71.0,30.25,NNW,338,0.0,15.0,99,0.00,,,0.00,,2013-07-05 02:02:00,
2013-07-04 22:11:00,71.0,71.0,30.25,NNW,338,0.0,15.0,99,0.00,,,0.00,,2013-07-05 02:11:00,
2013-07-04 22:22:00,71.0,71.0,30.25,NNW,338,0.0,15.0,99,0.00,,,0.00,,2013-07-05 02:22:00,
2013-07-04 22:32:00,71.0,71.0,30.25,NNW,338,0.0,15.0,99,0.00,,,0.00,,2013-07-05 02:32:00,
2013-07-04 23:43:00,67.0,67.0,30.25,NNW,342,0.0,15.0,99,0.00,,,0.00,,2013-07-05 03:43:00,